Location: Hartford
(41.7640°N, 72.6860°W)
Time: 03:04:49
(UTC-05:00)

Amateur Radio Satellites - All Passes

Search period start: 19 December 2014 02:34
Search period end: 20 December 2014 02:34
Location: Hartford, 41.7640°N, 72.6860°W

Satellite Date Start Highest point End Downlink Frequencies (MHz)
Time Altitude Azimuth
STARS 19 Dec 02:35:48 02:39:42 31° 263° (W) 02:43:38 437.465
KKS-1 19 Dec 02:35:53 02:39:20 22° 266° (W) 02:42:48 437.445
Gurwin Techsat 1B 19 Dec 02:39:36 02:44:56 84° 104° (ESE) 02:50:15 435.225
Oscar 19 19 Dec 02:45:26 02:49:22 22° 296° (WNW) 02:53:17 437.125/150
VERMONT LUNAR 19 Dec 02:52:45 02:55:04 17° 150° (SSE) 02:57:24 437.305
ITAMSAT 1 19 Dec 02:56:07 03:01:00 43° 290° (WNW) 03:05:51 435.822/435.867
PHONESAT 2.4 19 Dec 02:58:10 02:59:50 13° 147° (SSE) 03:01:30 2401.200-2431.200
MOZHAYETS 4 19 Dec 03:30:18 03:34:42 44° 71° (ENE) 03:39:07
GONETS M04 19 Dec 03:40:12 03:44:19 14° 74° (ENE) 03:48:26
AIST 1 19 Dec 03:45:11 03:49:27 72° 264° (W) 03:53:41
HORYU 2 19 Dec 03:55:56 04:00:08 39° 290° (WNW) 04:04:19 437.375
AO-7 19 Dec 03:56:38 04:04:55 60° 103° (ESE) 04:13:07 29.400- 29.500
STRAND 1 19 Dec 04:17:21 04:19:07 12° 58° (ENE) 04:20:52 437.568
Gurwin Techsat 1B 19 Dec 04:21:35 04:24:10 14° 301° (WNW) 04:26:45 435.225
VERMONT LUNAR 19 Dec 04:29:31 04:32:57 51° 166° (SSE) 04:36:24 437.305
SO-50 19 Dec 04:33:29 04:36:57 19° 40° (NE) 04:40:26 436.795
PHONESAT 2.4 19 Dec 04:34:31 04:37:58 42° 162° (SSE) 04:41:26 2401.200-2431.200
JAS-2 19 Dec 04:35:49 04:41:17 45° 98° (E) 04:46:17 435.910
CUBESAT XI-V 19 Dec 04:49:02 04:52:41 23° 66° (ENE) 04:56:19 437.345
PRISM 19 Dec 04:55:15 04:59:23 55° 73° (ENE) 05:03:32 437.425
MOZHAYETS 4 19 Dec 05:08:50 05:12:07 19° 268° (W) 05:15:25
GONETS M04 19 Dec 05:30:44 05:39:32 76° 94° (E) 05:48:21
Cubesat XI-IV 19 Dec 05:37:07 05:41:59 35° 97° (E) 05:46:48 437.490
AO-7 19 Dec 05:50:03 05:57:15 34° 302° (WNW) 06:04:26 29.400- 29.500
STRAND 1 19 Dec 05:52:23 05:57:30 87° 75° (ENE) 06:02:39 437.568
VERMONT LUNAR 19 Dec 06:07:39 06:11:10 73° 182° (S) 06:14:42 437.305
CUTE-I 19 Dec 06:10:38 06:15:57 71° 103° (ESE) 06:21:14 437.470
PHONESAT 2.4 19 Dec 06:12:53 06:16:31 74° 179° (S) 06:20:09 2401.200-2431.200
SO-50 19 Dec 06:13:08 06:18:02 75° 239° (WSW) 06:22:56 436.795
JAS-2 19 Dec 06:21:31 06:26:03 24° 298° (WNW) 06:30:16 435.910
CUBESAT XI-V 19 Dec 06:25:32 06:29:53 38° 263° (W) 06:34:15 437.345
PRISM 19 Dec 06:33:18 06:35:14 13° 269° (W) 06:37:11 437.425
Cubesat XI-IV 19 Dec 07:17:22 07:21:57 30° 294° (WNW) 07:26:32 437.490
HO-68 19 Dec 07:23:04 07:27:19 16° 89° (E) 07:31:32 435.675
GONETS M04 19 Dec 07:30:27 07:37:17 24° 295° (WNW) 07:44:09
STRAND 1 19 Dec 07:36:13 07:37:20 11° 272° (W) 07:38:27 437.568
VERMONT LUNAR 19 Dec 07:46:00 07:49:20 39° 199° (SSW) 07:52:39 437.305
COMPASS 1 19 Dec 07:47:59 07:49:01 11° 89° (E) 07:50:03 437.405
SEEDS 19 Dec 07:50:03 07:52:22 14° 91° (E) 07:54:41 437.485
CUTE 1.7 + AOD 2 19 Dec 07:50:48 07:53:39 17° 92° (E) 07:56:28 437.475
PHONESAT 2.4 19 Dec 07:51:34 07:55:05 48° 196° (SSW) 07:58:36 2401.200-2431.200
CUTE-I 19 Dec 07:52:12 07:55:25 17° 300° (WNW) 07:58:37 437.470
DOVE 4 19 Dec 07:57:51 08:00:17 14° 91° (E) 08:02:47 437.250
MaSat-1 19 Dec 08:10:32 08:11:41 13° 109° (ESE) 08:12:48 437.345
Oscar 11 19 Dec 08:22:24 08:24:01 12° 90° (E) 08:25:39 145.826/435.025
BRITE-PL 19 Dec 08:25:48 08:30:19 48° 100° (E) 08:35:10 437.365/2234.400
CUBEBUG 2 19 Dec 08:31:33 08:32:10 10° 89° (E) 08:32:47 437.445
CINEMA 3 19 Dec 08:34:44 08:38:12 20° 93° (E) 08:41:44 145.822/145.860
ANTELSAT 19 Dec 08:41:15 08:44:27 20° 65° (ENE) 08:47:43 437.575/2403.000
QB50P2 19 Dec 08:43:36 08:45:42 14° 63° (ENE) 08:47:49 145.880/145.840
AAUSAT CUBESAT 2 19 Dec 08:46:51 08:50:56 44° 99° (E) 08:54:59 437.432
ZACube-1 19 Dec 08:48:38 08:50:01 11° 89° (E) 08:51:24 437.345
POLYITAN 1 19 Dec 08:51:14 08:53:52 16° 64° (ENE) 08:56:30 437.675
CANX-2 19 Dec 08:54:24 08:58:45 86° 283° (WNW) 09:03:04 2200.000
NANOSAT C BR1 19 Dec 08:54:45 08:57:33 18° 65° (ENE) 09:00:20 145.865
DANDE 19 Dec 08:56:26 08:59:02 20° 85° (E) 09:02:10 436.750
GOMX 1 19 Dec 09:00:42 09:05:26 79° 102° (ESE) 09:10:29 467.674
QB50P1 19 Dec 09:08:10 09:11:33 24° 68° (ENE) 09:14:57 145.935-145.965
HO-68 19 Dec 09:08:40 09:15:52 87° 287° (WNW) 09:23:01 435.675
UWE-3 19 Dec 09:10:29 09:14:11 24° 94° (E) 09:17:56 435.000/436.395/437.385
FUNcube-1 19 Dec 09:14:05 09:17:34 22° 94° (E) 09:21:04 145.935
O/OREOS (USA 219) 19 Dec 09:14:38 09:17:24 16° 53° (NE) 09:20:09 437.305
TIGRISAT 19 Dec 09:16:42 09:20:50 45° 72° (ENE) 09:25:04 435.000
COMPASS 1 19 Dec 09:20:56 09:25:10 65° 285° (WNW) 09:29:22 437.405
SEEDS 19 Dec 09:24:19 09:28:29 50° 287° (WNW) 09:32:37 437.485
CUTE 1.7 + AOD 2 19 Dec 09:25:40 09:29:46 42° 288° (WNW) 09:33:49 437.475
AISAT 19 Dec 09:25:58 09:28:34 15° 92° (E) 09:31:09 437.250
VERMONT LUNAR 19 Dec 09:26:04 09:27:04 11° 214° (SW) 09:28:04 437.305
DX 1 19 Dec 09:30:55 09:35:09 50° 100° (E) 09:39:21 434.975-435.025
PHONESAT 2.4 19 Dec 09:31:05 09:33:18 15° 211° (SSW) 09:35:30 2401.200-2431.200
DOVE 4 19 Dec 09:33:42 09:38:23 66° 285° (WNW) 09:43:20 437.250
POPSAT HIP 1 19 Dec 09:35:52 09:39:54 48° 72° (ENE) 09:43:58 437.405
MaSat-1 19 Dec 09:43:42 09:44:57 13° 303° (WNW) 09:46:12 437.345
UNISAT 6 19 Dec 09:44:45 09:49:05 87° 256° (WSW) 09:53:35 437.425
YUBILEINY 19 Dec 09:46:34 09:54:10 32° 69° (ENE) 10:01:42 435.215
DELFI C3 19 Dec 09:47:09 09:51:18 90° 116° (ESE) 09:55:25 145.870
50 SAT 19 Dec 09:50:02 09:53:21 23° 95° (E) 09:56:40 437.505
CUSAT 1 19 Dec 09:54:12 09:57:39 58° 284° (WNW) 10:02:16 437.405
Oscar 11 19 Dec 09:56:16 10:00:36 62° 286° (WNW) 10:04:53 145.826/435.025
HUMSAT D 19 Dec 09:59:20 10:03:22 37° 98° (E) 10:07:24 437.325/437.525
UKube-1 19 Dec 10:03:43 10:08:03 73° 285° (WNW) 10:12:21 .
DUCHIFAT 1 19 Dec 10:04:32 10:08:44 81° 257° (WSW) 10:12:58 145.980
CUBEBUG 2 19 Dec 10:04:44 10:09:22 81° 284° (WNW) 10:14:05 437.445
BRITE-PL 19 Dec 10:05:18 10:08:33 19° 294° (WNW) 10:11:58 437.365/2234.400
CINEMA 3 19 Dec 10:11:05 10:15:33 45° 288° (WNW) 10:20:11 145.822/145.860
BUGSAT 1 19 Dec 10:11:19 10:15:26 83° 257° (WSW) 10:19:31 437.445
ESTCUBE 1 19 Dec 10:16:15 10:19:41 21° 94° (E) 10:23:05 437.505/2401.250
ANTELSAT 19 Dec 10:16:55 10:20:59 39° 262° (W) 10:25:10 437.575/2403.000
QB50P2 19 Dec 10:17:00 10:21:09 56° 259° (W) 10:25:19 145.880/145.840
VELOX 1 19 Dec 10:18:48 10:23:10 55° 101° (E) 10:27:29 145.980
ZACube-1 19 Dec 10:22:19 10:26:49 72° 285° (WNW) 10:31:23 437.345
AAUSAT CUBESAT 2 19 Dec 10:23:32 10:26:15 17° 295° (WNW) 10:28:57 437.432
POLYITAN 1 19 Dec 10:25:25 10:29:27 45° 261° (W) 10:33:31 437.675
NANOSAT C BR1 19 Dec 10:29:07 10:33:06 41° 261° (W) 10:37:07 145.865
DANDE 19 Dec 10:39:32 10:42:21 22° 294° (WNW) 10:45:51 436.750
GOMX 1 19 Dec 10:41:04 10:43:01 13° 297° (WNW) 10:45:01 467.674
QB50P1 19 Dec 10:43:39 10:47:19 29° 264° (W) 10:51:00 145.935-145.965
UWE-3 19 Dec 10:46:38 10:50:46 35° 290° (WNW) 10:54:58 435.000/436.395/437.385
FUNcube-1 19 Dec 10:49:50 10:53:59 37° 289° (WNW) 10:58:12 145.935
O/OREOS (USA 219) 19 Dec 10:52:45 10:57:12 60° 251° (WSW) 11:01:39 437.305
SPROUT 19 Dec 10:53:21 10:54:30 11° 90° (E) 10:55:38 437.525
TISAT 1 19 Dec 10:54:39 10:56:18 12° 91° (E) 10:57:57 437.305
TIGRISAT 19 Dec 10:55:06 10:57:51 16° 269° (W) 11:00:38 435.000
HO-68 19 Dec 10:58:03 11:02:35 18° 306° (NW) 11:07:07 435.675
AISAT 19 Dec 11:01:11 11:05:28 50° 288° (WNW) 11:09:45 437.250
DX 1 19 Dec 11:08:20 11:10:59 16° 297° (WNW) 11:13:38 434.975-435.025
CUBEBUG 1 19 Dec 11:12:41 11:17:02 82° 103° (ESE) 11:21:22 437.445
POPSAT HIP 1 19 Dec 11:13:45 11:16:04 14° 268° (W) 11:18:23 437.405
RS-15 19 Dec 11:16:47 11:27:15 54° 112° (ESE) 11:37:41 29.354- 29.394
50 SAT 19 Dec 11:24:58 11:28:35 29° 290° (WNW) 11:32:11 437.505
HUMSAT D 19 Dec 11:35:43 11:38:55 20° 294° (WNW) 11:42:06 437.325/437.525
YUBILEINY 19 Dec 11:42:57 11:51:22 57° 270° (W) 11:59:46 435.215
ESTCUBE 1 19 Dec 11:52:31 11:56:39 37° 290° (WNW) 12:00:45 437.505/2401.250
VELOX 1 19 Dec 11:56:46 11:59:17 15° 297° (WNW) 12:01:49 145.980
PCSat 19 Dec 12:22:15 12:24:22 12° 102° (ESE) 12:26:29 145.827
Oscar 19 19 Dec 12:22:23 12:27:30 72° 74° (ENE) 12:32:39 437.125/150
Gurwin Techsat 1B 19 Dec 12:23:19 12:26:53 19° 62° (ENE) 12:30:27 435.225
SPROUT 19 Dec 12:26:44 12:31:00 65° 285° (WNW) 12:35:16 437.525
TISAT 1 19 Dec 12:28:20 12:32:29 58° 286° (WNW) 12:36:38 437.305
ITUPSAT 1 19 Dec 12:34:26 12:38:12 23° 94° (E) 12:41:56 437.325
SWISSCUBE 19 Dec 12:34:27 12:38:23 25° 95° (E) 12:42:17 437.505
ITAMSAT 1 19 Dec 12:35:22 12:40:05 37° 68° (ENE) 12:44:48 435.822/435.867
BEESAT 3 19 Dec 12:37:54 12:41:11 24° 113° (ESE) 12:44:31 437.485
CUBEBUG 1 19 Dec 12:52:16 12:52:44 10° 300° (WNW) 12:53:13 437.445
BEESAT 19 Dec 12:59:21 13:03:52 41° 99° (E) 13:08:21 436.000
AUBIESAT-1 19 Dec 13:06:08 13:08:37 15° 95° (E) 13:11:00 437.475
AO-7 19 Dec 13:06:55 13:12:21 20° 49° (NE) 13:17:47 29.400- 29.500
ISS 19 Dec 13:09:06 13:11:46 23° 134° (SE) 13:14:27 145.825
BEESAT 2 19 Dec 13:15:35 13:19:35 53° 118° (ESE) 13:23:40 435.950
HORYU 2 19 Dec 13:19:11 13:22:28 21° 65° (ENE) 13:25:48 437.375
RS-15 19 Dec 13:29:17 13:39:43 49° 316° (NW) 13:50:20 29.354- 29.394
M-CUBED/EXP-1 PRIME 19 Dec 13:29:38 13:33:32 30° 100° (E) 13:37:08 437.505
Gurwin Techsat 1B 19 Dec 14:01:06 14:06:21 62° 259° (W) 14:11:37 435.225
PCSat 19 Dec 14:01:33 14:06:58 87° 299° (WNW) 14:12:26 145.827
Oscar 19 19 Dec 14:04:52 14:07:22 14° 270° (W) 14:09:52 437.125/150
ITUPSAT 1 19 Dec 14:11:47 14:16:12 38° 291° (WNW) 14:20:34 437.325
SWISSCUBE 19 Dec 14:11:59 14:16:17 35° 291° (WNW) 14:20:34 437.505
AIST 2 19 Dec 14:13:41 14:17:55 81° 303° (WNW) 14:22:14 435.215
ITAMSAT 1 19 Dec 14:15:13 14:19:37 28° 265° (W) 14:24:01 435.822/435.867
BEESAT 3 19 Dec 14:15:26 14:19:12 34° 310° (NW) 14:23:02 437.485
STARS 19 Dec 14:25:05 14:29:21 45° 99° (E) 14:33:36 437.465
KKS-1 19 Dec 14:25:39 14:30:07 69° 102° (ESE) 14:34:34 437.445
BEESAT 19 Dec 14:37:48 14:41:26 22° 295° (WNW) 14:45:03 436.000
AUBIESAT-1 19 Dec 14:39:41 14:43:57 48° 294° (WNW) 14:47:50 437.475
ISS 19 Dec 14:45:01 14:48:11 44° 331° (NNW) 14:51:23 145.825
JAS-2 19 Dec 14:47:16 14:53:21 27° 63° (ENE) 14:59:01 435.910
HORYU 2 19 Dec 14:54:41 14:58:52 39° 262° (W) 15:03:06 437.375
BEESAT 2 19 Dec 14:55:12 14:58:09 19° 317° (NW) 15:01:09 435.950
AO-7 19 Dec 14:55:34 15:03:52 80° 70° (ENE) 15:12:15 29.400- 29.500
M-CUBED/EXP-1 PRIME 19 Dec 15:04:45 15:08:25 25° 299° (WNW) 15:11:50 437.505
GONETS M04 19 Dec 15:41:06 15:49:09 38° 71° (ENE) 15:57:05
RS-15 19 Dec 15:47:37 15:55:44 23° 348° (NNW) 16:04:00 29.354- 29.394
PCSat 19 Dec 15:47:46 15:51:11 17° 319° (NW) 15:54:36 145.827
AIST 2 19 Dec 15:55:20 15:57:15 13° 323° (NW) 15:59:11 435.215
CUTE-I 19 Dec 15:55:33 15:58:47 17° 60° (ENE) 16:02:00 437.470
STARS 19 Dec 16:02:28 16:05:29 18° 296° (WNW) 16:08:29 437.465
KKS-1 19 Dec 16:04:14 16:06:11 13° 299° (WNW) 16:08:08 437.445
AIST 1 19 Dec 16:14:44 16:19:05 66° 95° (E) 16:23:25
ISS 19 Dec 16:23:13 16:25:24 16° 350° (N) 16:27:35 145.825
JAS-2 19 Dec 16:30:15 16:37:55 65° 259° (WSW) 16:44:59 435.910
AO-7 19 Dec 16:51:25 16:57:27 22° 268° (W) 17:03:34 29.400- 29.500
Cubesat XI-IV 19 Dec 16:59:22 17:04:36 60° 72° (ENE) 17:09:50 437.490
MOZHAYETS 4 19 Dec 17:02:13 17:06:52 79° 284° (WNW) 17:11:27
CUTE-I 19 Dec 17:32:57 17:38:15 71° 257° (WSW) 17:43:34 437.470
GONETS M04 19 Dec 17:37:51 17:46:06 48° 272° (W) 17:54:17
MaSat-1 19 Dec 17:40:08 17:42:06 22° 59° (ENE) 17:44:09 437.345
HO-68 19 Dec 17:53:48 17:57:31 15° 51° (NE) 18:01:14 435.675
AIST 1 19 Dec 17:55:49 17:57:13 11° 293° (WNW) 17:58:36
ISS 19 Dec 18:00:42 18:02:56 17° 11° (N) 18:05:10 145.825
STRAND 1 19 Dec 18:03:11 18:07:33 28° 96° (E) 18:11:55 437.568
RS-15 19 Dec 18:04:14 18:13:18 27° 24° (NNE) 18:22:38 29.354- 29.394
PRISM 19 Dec 18:13:33 18:17:44 90° 290° (WNW) 18:21:52 437.425
CUBESAT XI-V 19 Dec 18:21:49 18:26:19 52° 99° (E) 18:30:47 437.345
JAS-2 19 Dec 18:22:18 18:23:55 11° 275° (W) 18:25:30 435.910
Cubesat XI-IV 19 Dec 18:41:36 18:45:04 18° 268° (W) 18:48:33 437.490
SEEDS 19 Dec 18:44:13 18:45:38 12° 62° (ENE) 18:47:03 437.485
CUTE 1.7 + AOD 2 19 Dec 18:45:15 18:47:26 14° 63° (ENE) 18:49:37 437.475
CUSAT 1 19 Dec 18:48:42 18:54:27 23° 66° (ENE) 19:00:40 437.405
DOVE 4 19 Dec 19:05:36 19:07:17 12° 62° (ENE) 19:09:00 437.250
Oscar 11 19 Dec 19:18:56 19:19:54 11° 61° (ENE) 19:20:53 145.826/435.025
UKube-1 19 Dec 19:27:07 19:27:45 10° 60° (ENE) 19:28:24 .
DANDE 19 Dec 19:34:01 19:40:59 39° 73° (ENE) 19:48:51 436.750
HO-68 19 Dec 19:36:52 19:44:01 73° 71° (ENE) 19:51:10 435.675
ISS 19 Dec 19:36:54 19:40:06 49° 30° (NNE) 19:43:17 145.825
BRITE-PL 19 Dec 19:37:52 19:41:57 52° 74° (ENE) 19:45:59 437.365/2234.400
CINEMA 3 19 Dec 19:38:13 19:40:53 17° 64° (ENE) 19:43:34 145.822/145.860
AAUSAT CUBESAT 2 19 Dec 19:38:37 19:42:22 32° 70° (ENE) 19:46:08 437.432
STRAND 1 19 Dec 19:42:11 19:46:45 35° 292° (WNW) 19:51:19 437.568
CANX-2 19 Dec 19:47:37 19:51:51 70° 75° (ENE) 19:56:08 2200.000
CUBESAT XI-V 19 Dec 20:00:25 20:03:20 17° 296° (WNW) 20:06:16 437.345
UWE-3 19 Dec 20:09:06 20:12:04 19° 66° (ENE) 20:15:06 435.000/436.395/437.385
GOMX 1 19 Dec 20:10:00 20:14:09 86° 76° (ENE) 20:18:20 467.674
FUNcube-1 19 Dec 20:11:27 20:14:11 17° 65° (ENE) 20:16:56 145.935
COMPASS 1 19 Dec 20:12:35 20:16:48 88° 75° (ENE) 20:21:04 437.405
SEEDS 19 Dec 20:16:38 20:20:52 70° 259° (WSW) 20:25:08 437.485
RS-15 19 Dec 20:16:57 20:28:12 70° 53° (NE) 20:39:55 29.354- 29.394
CUTE 1.7 + AOD 2 19 Dec 20:18:41 20:22:52 57° 260° (W) 20:27:06 437.475
AISAT 19 Dec 20:25:04 20:27:41 16° 63° (ENE) 20:30:18 437.250
DX 1 19 Dec 20:26:53 20:31:01 45° 71° (ENE) 20:35:10 434.975-435.025
SO-50 19 Dec 20:28:28 20:32:31 33° 114° (ESE) 20:36:41 436.795
CUSAT 1 19 Dec 20:30:31 20:38:11 85° 262° (W) 20:46:44 437.405
DELFI C3 19 Dec 20:35:50 20:39:52 58° 74° (ENE) 20:43:56 145.870
50 SAT 19 Dec 20:39:45 20:42:12 16° 65° (ENE) 20:44:41 437.505
DOVE 4 19 Dec 20:40:29 20:44:34 58° 260° (W) 20:48:42 437.250
Oscar 11 19 Dec 20:51:06 20:55:25 79° 258° (WSW) 20:59:48 145.826/435.025
HUMSAT D 19 Dec 20:52:22 20:55:52 27° 69° (ENE) 20:59:25 437.325/437.525
BEESAT 3 19 Dec 20:57:07 21:00:15 20° 44° (NE) 21:03:20 437.485
AIST 2 19 Dec 20:58:54 21:00:25 12° 36° (NE) 21:01:56 435.215
UKube-1 19 Dec 20:58:55 21:03:15 82° 257° (WSW) 21:07:36 .
CUBEBUG 2 19 Dec 21:03:42 21:07:51 88° 77° (ENE) 21:12:09 437.445
PCSat 19 Dec 21:07:17 21:10:24 15° 39° (NE) 21:13:30 145.827
CINEMA 3 19 Dec 21:13:49 21:17:45 42° 262° (W) 21:21:47 145.822/145.860
ISS 19 Dec 21:14:00 21:16:27 20° 227° (SW) 21:18:54 145.825
AAUSAT CUBESAT 2 19 Dec 21:14:50 21:18:04 22° 266° (W) 21:21:21 437.432
ESTCUBE 1 19 Dec 21:16:38 21:20:05 22° 66° (ENE) 21:23:32 437.505/2401.250
VELOX 1 19 Dec 21:16:58 21:21:15 51° 72° (ENE) 21:25:32 145.980
DANDE 19 Dec 21:17:17 21:24:33 50° 267° (W) 21:32:46 436.750
ZACube-1 19 Dec 21:18:51 21:23:02 86° 257° (WSW) 21:27:18 437.345
BRITE-PL 19 Dec 21:19:13 21:20:50 12° 269° (W) 21:22:27 437.365/2234.400
HO-68 19 Dec 21:27:07 21:32:19 21° 268° (W) 21:37:33 435.675
BEESAT 2 19 Dec 21:35:32 21:39:28 38° 51° (NE) 21:43:21 435.950
UNISAT 6 19 Dec 21:37:21 21:40:52 21° 93° (E) 21:44:24 437.425
UWE-3 19 Dec 21:44:29 21:48:21 37° 263° (W) 21:52:19 435.000/436.395/437.385
FUNcube-1 19 Dec 21:46:14 21:50:11 42° 262° (W) 21:54:14 145.935
TISAT 1 19 Dec 21:49:10 21:49:59 11° 61° (ENE) 21:50:49 437.305
DUCHIFAT 1 19 Dec 21:50:45 21:53:25 16° 92° (E) 21:56:05 145.980
BUGSAT 1 19 Dec 21:55:14 21:57:17 14° 92° (E) 21:59:21 437.445
AISAT 19 Dec 21:59:34 22:03:53 53° 260° (W) 22:08:13 437.250
QB50P2 19 Dec 22:02:58 22:06:21 23° 95° (E) 22:09:44 145.880/145.840
DX 1 19 Dec 22:04:45 22:07:29 16° 267° (W) 22:10:13 434.975-435.025
ANTELSAT 19 Dec 22:08:27 22:12:57 43° 98° (E) 22:17:26 437.575/2403.000
SO-50 19 Dec 22:08:58 22:13:02 31° 313° (NW) 22:17:15 436.795
CUBEBUG 1 19 Dec 22:09:09 22:13:30 71° 75° (ENE) 22:17:50 437.445
POLYITAN 1 19 Dec 22:11:11 22:14:53 28° 96° (E) 22:18:35 437.675
50 SAT 19 Dec 22:13:17 22:17:05 42° 261° (W) 22:20:57 437.505
DELFI C3 19 Dec 22:14:07 22:15:30 11° 270° (W) 22:16:53 145.870
NANOSAT C BR1 19 Dec 22:14:18 22:18:02 29° 96° (E) 22:21:46 145.865
CUSAT 1 19 Dec 22:15:33 22:20:29 18° 277° (W) 22:25:43 437.405
HUMSAT D 19 Dec 22:28:15 22:31:38 24° 265° (W) 22:35:04 437.325/437.525
QB50P1 19 Dec 22:28:17 22:32:21 42° 99° (E) 22:36:24 145.935-145.965
RS-15 19 Dec 22:30:04 22:39:50 35° 254° (WSW) 22:50:00 29.354- 29.394
BEESAT 3 19 Dec 22:34:39 22:38:41 48° 242° (WSW) 22:42:39 437.485
AIST 2 19 Dec 22:35:32 22:39:50 72° 56° (NE) 22:44:04 435.215
TIGRISAT 19 Dec 22:44:30 22:49:12 83° 284° (WNW) 22:53:56 435.000
YUBILEINY 19 Dec 22:48:09 22:55:50 36° 85° (E) 23:03:30 435.215
PCSat 19 Dec 22:49:16 22:54:44 78° 60° (ENE) 23:00:08 145.827
ESTCUBE 1 19 Dec 22:52:29 22:56:42 38° 262° (W) 23:00:57 437.505/2401.250
VELOX 1 19 Dec 22:55:38 22:58:07 15° 268° (W) 23:00:37 145.980
POPSAT HIP 1 19 Dec 22:56:43 23:01:00 90° 103° (ESE) 23:05:16 437.405
UNISAT 6 19 Dec 23:13:23 23:17:48 42° 289° (WNW) 23:22:14 437.425
BEESAT 2 19 Dec 23:14:17 23:17:30 22° 248° (WSW) 23:20:40 435.950
TISAT 1 19 Dec 23:21:00 23:25:12 75° 258° (WSW) 23:29:25 437.305
SPROUT 19 Dec 23:21:06 23:25:23 83° 257° (WSW) 23:29:41 437.525
DUCHIFAT 1 19 Dec 23:25:27 23:29:29 43° 288° (WNW) 23:33:31 145.980
O/OREOS (USA 219) 19 Dec 23:28:12 23:30:38 15° 99° (E) 23:33:04 437.305
BUGSAT 1 19 Dec 23:29:09 23:33:03 47° 287° (WNW) 23:36:57 437.445
QB50P2 19 Dec 23:38:31 23:42:17 31° 291° (WNW) 23:46:04 145.880/145.840
SWISSCUBE 19 Dec 23:41:27 23:45:38 31° 68° (ENE) 23:49:50 437.505
ITUPSAT 1 19 Dec 23:41:40 23:45:44 28° 67° (ENE) 23:49:49 437.325
ANTELSAT 19 Dec 23:45:55 23:49:27 21° 295° (WNW) 23:52:59 437.575/2403.000
POLYITAN 1 19 Dec 23:47:11 23:50:44 26° 292° (WNW) 23:54:18 437.675
CUBEBUG 1 19 Dec 23:49:36 23:50:19 10° 271° (W) 23:51:03 437.445
NANOSAT C BR1 19 Dec 23:50:21 23:53:47 24° 292° (WNW) 23:57:13 145.865
AUBIESAT-1 19 Dec 23:54:05 23:58:06 27° 61° (ENE) 00:02:10 437.475
QB50P1 20 Dec 00:05:04 00:07:55 18° 295° (WNW) 00:10:45 145.935-145.965
BEESAT 20 Dec 00:06:08 00:10:45 49° 71° (ENE) 00:15:23 436.000
AIST 2 20 Dec 00:16:27 00:17:50 11° 253° (WSW) 00:19:13 435.215
M-CUBED/EXP-1 PRIME 20 Dec 00:18:14 00:22:53 48° 66° (ENE) 00:27:37 437.505
Oscar 19 20 Dec 00:34:19 00:38:34 25° 94° (E) 00:42:47 437.125/150
PCSat 20 Dec 00:34:38 00:37:25 14° 257° (WSW) 00:40:11 145.827
YUBILEINY 20 Dec 00:43:56 00:52:20 50° 285° (WNW) 01:00:46 435.215
ITAMSAT 1 20 Dec 00:49:54 00:51:52 12° 89° (E) 00:53:49 435.822/435.867
O/OREOS (USA 219) 20 Dec 01:05:12 01:09:33 53° 296° (WNW) 01:13:55 437.305
ITUPSAT 1 20 Dec 01:19:14 01:23:31 32° 263° (W) 01:27:50 437.325
SWISSCUBE 20 Dec 01:19:18 01:23:27 29° 264° (W) 01:27:37 437.505
STARS 20 Dec 01:22:38 01:26:44 41° 71° (ENE) 01:30:52 437.465
KKS-1 20 Dec 01:24:09 01:28:31 64° 74° (ENE) 01:32:56 437.445
AUBIESAT-1 20 Dec 01:28:20 01:32:49 39° 258° (WSW) 01:37:25 437.475
BEESAT 20 Dec 01:45:38 01:48:51 18° 268° (W) 01:52:05 436.000
M-CUBED/EXP-1 PRIME 20 Dec 01:54:28 01:58:04 21° 263° (W) 02:01:44 437.505
Oscar 19 20 Dec 02:13:10 02:18:01 41° 291° (WNW) 02:22:50 437.125/150
VERMONT LUNAR 20 Dec 02:13:56 02:15:52 14° 148° (SSE) 02:17:47 437.305
Gurwin Techsat 1B 20 Dec 02:17:01 02:22:13 53° 100° (E) 02:27:22 435.225
AIST 1 20 Dec 02:22:55 02:25:43 17° 71° (ENE) 02:28:30
PHONESAT 2.4 20 Dec 02:24:36 02:25:51 11° 146° (SE) 02:27:06 2401.200-2431.200
MOZHAYETS 4 20 Dec 02:30:53 02:32:21 11° 60° (ENE) 02:33:50
